YTO2407 ZBAD-ZPLJ

Flight info

Callsign YTO2407
Flight time N/A
Altitude 32100
Route PEGSO7F PEGSO B215 GODON W43 ATERI/K0878S1040 W43 GUTRU W47 LOVRA W540 DOVOP DCT ZNX DCT ANRUG DCT ONEBA G212 LUVEN/K0900S1010 G212 BOPTU/K0895S1040 G212 SGM A599 GULOT W146 BUBSU/K0893S1070 W162 CEH
Aircraft B763/H-SDE3FGHIM3RWXY/LB1

Departure

Time 2026-04-24 05:32
Airport Beijing Daxing International Airport (ZBAD)

Arrival

Time N/A
Airport Lijiang Sanyi International Airport (ZPLJ)
Time Latitude Longitude Altitude Speed Heading
2026-04-24 05:16 39.51915 116.43805 92 ft 0 kts 12°
2026-04-24 05:24 39.51911 116.43803 92 ft 2 kts 13°
2026-04-24 05:24 39.51896 116.43799 92 ft 2 kts 12°
2026-04-24 05:24 39.51881 116.43794 92 ft 2 kts 12°
2026-04-24 05:25 39.51872 116.43792 92 ft 2 kts 12°
2026-04-24 05:25 39.51858 116.43792 92 ft 2 kts 334°
2026-04-24 05:25 39.51846 116.43803 92 ft 2 kts 303°
2026-04-24 05:25 39.51842 116.43814 92 ft 0 kts 283°
2026-04-24 05:26 39.51841 116.43822 92 ft 0 kts 282°
2026-04-24 05:28 39.51842 116.43803 92 ft 4 kts 268°
2026-04-24 05:28 39.51833 116.43737 92 ft 11 kts 260°
2026-04-24 05:28 39.51778 116.43637 92 ft 15 kts 226°
2026-04-24 05:28 39.51775 116.43517 92 ft 13 kts 284°
2026-04-24 05:29 39.51797 116.43401 92 ft 13 kts 283°
2026-04-24 05:29 39.51819 116.43278 92 ft 12 kts 282°
2026-04-24 05:29 39.51800 116.43189 92 ft 8 kts 218°
2026-04-24 05:29 39.51754 116.43166 92 ft 5 kts 191°
2026-04-24 05:30 39.51718 116.43166 92 ft 5 kts 172°
2026-04-24 05:30 39.51671 116.43192 92 ft 9 kts 141°
2026-04-24 05:30 39.51646 116.43253 92 ft 6 kts 104°
2026-04-24 05:30 39.51635 116.43316 92 ft 10 kts 103°
2026-04-24 05:31 39.51576 116.43639 92 ft 67 kts 103°
2026-04-24 05:31 39.51426 116.44476 92 ft 123 kts 103°
2026-04-24 05:31 39.51188 116.45790 92 ft 172 kts 103°
2026-04-24 05:31 39.50907 116.47396 378 ft 190 kts 103°
2026-04-24 05:32 39.50622 116.49076 920 ft 193 kts 104°
2026-04-24 05:32 39.50312 116.50795 1158 ft 199 kts 103°
2026-04-24 05:32 39.50008 116.52545 1472 ft 203 kts 103°
2026-04-24 05:32 39.49699 116.54359 1854 ft 207 kts 104°
2026-04-24 05:33 39.49391 116.56172 2246 ft 209 kts 104°
2026-04-24 05:33 39.49080 116.58015 2653 ft 209 kts 104°
2026-04-24 05:33 39.48774 116.59847 3074 ft 208 kts 103°
2026-04-24 05:34 39.48149 116.63513 3692 ft 217 kts 103°